Location: Newark
(34.6283°N, 36.0776°E)
Time: 04:07:35
(UTC+00:00)

A-11 Canister half - Pass Details

Date: 25 September 2019
Orbit: 1527 x 1682 km, 47.3° (Epoch: 18 October)

Event Time Altitude Azimuth Distance (km) Brightness Sun altitude
Rises 06:49:25 0° 304° (NW) 4,785 11.1 38.8°
Reaches altitude 10° 06:52:28 10° 304° (WNW) 3,818 10.7 39.3°
Maximum altitude 07:02:14 78° 220° (SW) 1,671 9.9 40.9°
Drops below altitude 10° 07:12:16 10° 136° (SE) 3,916 12.3 42.5°
Sets 07:15:26 0° 135° (SE) 4,912 12.5 43.0°
